Weather Roundup
Issued by NWS Springfield, MO

Home | Current Version | Previous Version | Text Only | Print | Product List | Glossary On
Versions: 1 2 3 4 5 6 7 8 9 10 11 12 13 14 15 16 17 18 19 20 21 22 23 24 25 26 27 28 29 30 31 32 33 34 35 36 37 38 39 40 41 42 43 44 45 46 47 48 49 50
000
NZUS99 KSGF 101407
HRRSGF

HOURLY WEATHER
NATIONAL WEATHER SERVICE SPRINGFIELD MO
800 AM CST SUN DEC 10 2017

......SGF CWA......

CITY           SKY/WX    TMP DP  RH WIND       PRES   REMARKS
SPRINGFIELD    CLEAR     34  23  64 SW9       30.12F WCI  27
JOPLIN         CLEAR     38  25  59 SW12      30.18R WCI  30
WEST PLAINS    CLOUDY    27  20  75 SW6       30.17F WCI  20
ROLLA          CLEAR     28  19  69 S15       30.06F WCI  16
OSAGE BEACH    CLEAR     36  21  54 W9        30.09F WCI  29
BRANSON        CLEAR     37  19  48 SW10G16   30.17F WCI  30

......SURROUNDING SGF CWA......

CITY           SKY/WX    TMP DP  RH WIND       PRES   REMARKS
CHANUTE        CLEAR     33  21  61 W7        30.17S WCI  27
PARSONS        CLOUDY    22  20  92 SW3       30.20R
COFFEYVILLE    CLEAR     29  23  78 SW5       30.20S WCI  24
EMPORIA        CLEAR     37  17  44 W12       30.16R WCI  29
GROVE OK       CLEAR     32  28  86 SW6       30.21S WCI  26
ROGERS AR      CLEAR     36  22  56 SW12      30.20F WCI  28
SILOAM SPRINGS CLEAR     33  24  69 SW9       30.22F WCI  25
HARRISON AR    CLEAR     44  23  43 W12       30.18F

......KANSAS AND MISSOURI......

CITY           SKY/WX    TMP DP  RH WIND       PRES   REMARKS
KANSAS CTY INT PTCLDY    33  33 100 SW14      30.07R WCI  23
DOWNTOWN KC    CLEAR     32  22  66 SW7       30.08S WCI  26
COLUMBIA       CLEAR     30  22  72 SW10      30.05S WCI  21
SEDALIA        CLEAR     33  22  63 SW12      30.08R WCI  24
ST JOSEPH      CLOUDY    34  23  64 W7        30.08R WCI  28
ST LOUIS       PTCLDY    30  19  63 S13       30.07F WCI  20
SPIRIT OF STL  CLEAR     29  19  66 SW6       30.07F WCI  23
KIRKSVILLE     CLEAR     29  22  75 W10       29.98S WCI  20
WICHITA        CLEAR     39  16  39 NW12      30.22R WCI  32
TOPEKA         CLEAR     35  21  56 W8        30.12R WCI  29
OLATHE         CLEAR     32  21  64 W7        30.09R WCI  26

......TENNESSEE......

CITY           SKY/WX    TMP DP  RH WIND       PRES   REMARKS
MEMPHIS        CLEAR     30  25  81 SW3       30.29S
NASHVILLE      SUNNY     26  20  77 S3        30.28S

......ARKANSAS.......

CITY           SKY/WX    TMP DP  RH WIND       PRES   REMARKS
FAYETTEVILLE   CLEAR     32  25  75 S9        30.23F WCI  24
FT SMITH       CLOUDY    27  24  89 CALM      30.29F
LITTLE ROCK    CLEAR     32  25  75 SW7       30.31F WCI  26

......OKLAHOMA.......

CITY           SKY/WX    TMP DP  RH WIND       PRES   REMARKS
TULSA          CLEAR     38  25  59 W9        30.25R WCI  31
PONCA CITY     CLOUDY    30  18  60 W6        30.26R WCI  24
MCALESTER      CLEAR     32  24  72 CALM      30.31S
OKLAHOMA CITY  CLEAR     31  20  63 SW6       30.30R WCI  25

......IOWA............

CITY           SKY/WX    TMP DP  RH WIND       PRES   REMARKS
DES MOINES     PTCLDY    31  23  72 NW12      29.98R WCI  22
QUAD CITIES    CLEAR     26  18  71 SW7       29.90F WCI  18

......ILLINOIS........

CITY           SKY/WX    TMP DP  RH WIND       PRES   REMARKS
QUINCY         CLOUDY    28  20  71 SW14      29.97S WCI  17
CHICAGO        CLOUDY    25  16  68 SW13      29.91F WCI  14




USA.gov is the U.S. government's official web portal to all federal, state and local government web resources and services.